Weather History for Olivia, MN

Change the Weather History Date:

Saturday, December 1, 2012

  Actual Average (KRWF) Record (KRWF)
Temperature  
Mean Temperature 40 °F -  
Max Temperature 51 °F 31 °F 64 °F (1998)
Min Temperature 30 °F 16 °F -4 °F (1960)
Degree Days  
Heating Degree Days 24    
Moisture  
Dew Point 34 °F    
Average Humidity 83    
Maximum Humidity 93    
Minimum Humidity 54    
Precipitation  
Precipitation 0.00 in - - ()
Sea Level Pressure  
Sea Level Pressure 29.78 in    
Wind  
Wind Speed 11 mph (SSW)    
Max Wind Speed 17 mph    
Max Gust Speed 22 mph    
Visibility 6 miles    
Events Fog    
Averages and records for this station are not official NWS values.
T = Trace of Precipitation, MM = Missing Value Source: NWS Daily Summary

Daily Weather History Graph

Daily Weather History Graph

Search for Another Location

Airport:

Trip Planner

Search our weather history database for the weather conditions in past years. The results will help you decide how hot, cold, wet, or windy it might be!

Date:

Astronomy

Dec. 01, 2012 Rise Set
Actual Time 7:37 AM CST 4:40 PM CST
Civil Twilight 7:04 AM CST 5:13 PM CST
Nautical Twilight 6:28 AM CST 5:50 PM CST
Astronomical Twilight 5:53 AM CST 6:25 PM CST
Moon 7:33 PM CST (12/1) 9:49 AM CST (12/1)
Length of Visible Light 10h 08m
Length of Day
9h 02m
Waning Gibbous, 91% of the Moon is Illuminated
Dec 1
Waning Gibbous
Dec 6
Last Quarter
Dec 13
New
Dec 19
First Quarter
Dec 28
Full

Hourly Weather History & Observations

Time (CST) Temp. Windchill Dew Point Humidity Pressure Visibility Wind Dir Wind Speed Gust Speed Precip Events Conditions
12:11 AM 33.8 °F 23.9 °F 32.0 °F 93% 29.96 in 2.5 mi SE 15.0 mph - N/A   Overcast
12:31 AM 33.8 °F 23.5 °F 32.0 °F 93% 29.96 in 2.5 mi SSE 16.1 mph - N/A   Overcast
12:51 AM 33.8 °F 24.3 °F 32.0 °F 93% 29.95 in 2.5 mi SE 13.8 mph - N/A   Overcast
1:11 AM 33.8 °F 24.8 °F 32.0 °F 93% 29.94 in 2.0 mi SSE 12.7 mph - N/A   Overcast
1:31 AM 33.8 °F 24.8 °F 32.0 °F 93% 29.93 in 2.0 mi SSE 12.7 mph - N/A   Overcast
1:51 AM 33.8 °F 23.9 °F 32.0 °F 93% 29.92 in 2.0 mi SSE 15.0 mph 18.4 mph N/A   Overcast
2:11 AM 35.6 °F 26.6 °F 33.8 °F 93% 29.90 in 2.5 mi SE 13.8 mph 19.6 mph N/A   Overcast
2:52 AM 35.6 °F 25.9 °F 33.8 °F 93% 29.87 in 2.5 mi SE 16.1 mph 20.7 mph N/A   Overcast
3:31 AM 35.6 °F 26.6 °F 33.8 °F 93% 29.86 in 2.5 mi SSE 13.8 mph - N/A   Overcast
4:11 AM 33.8 °F 24.8 °F 32.0 °F 93% 29.84 in 2.5 mi SSE 12.7 mph - N/A   Mist
4:31 AM 33.8 °F 24.3 °F 32.0 °F 93% 29.82 in 2.5 mi SE 13.8 mph - N/A   Mist
4:51 AM 33.8 °F 24.3 °F 32.0 °F 93% 29.80 in 2.5 mi SE 13.8 mph - N/A   Mist
5:11 AM 33.8 °F 23.5 °F 32.0 °F 93% 29.80 in 2.5 mi SSE 16.1 mph 20.7 mph N/A   Mist
5:31 AM 33.8 °F 23.5 °F 32.0 °F 93% 29.78 in 3.0 mi SSE 16.1 mph - N/A   Clear
5:51 AM 33.8 °F 23.9 °F 32.0 °F 93% 29.76 in 3.0 mi SE 15.0 mph 19.6 mph N/A   Clear
6:10 AM 33.8 °F 23.2 °F 32.0 °F 93% 29.74 in 3.0 mi SSE 17.3 mph 21.9 mph N/A   Clear
6:30 AM 33.8 °F 23.2 °F 32.0 °F 93% 29.73 in 3.0 mi SE 17.3 mph 21.9 mph N/A   Clear
6:51 AM 35.6 °F 26.2 °F 33.8 °F 93% 29.73 in 4.0 mi SSE 15.0 mph - N/A   Clear
7:11 AM 35.6 °F 26.2 °F 33.8 °F 93% 29.72 in 4.0 mi SSE 15.0 mph - N/A   Clear
7:31 AM 35.6 °F 28.6 °F 32.0 °F 87% 29.77 in 5.0 mi South 9.2 mph - N/A   Scattered Clouds
7:51 AM 35.6 °F 30.7 °F 33.8 °F 93% 29.77 in 3.0 mi SSE 5.8 mph - N/A   Overcast
8:11 AM 35.6 °F 29.2 °F 33.8 °F 93% 29.77 in 3.0 mi SE 8.1 mph - N/A   Overcast
8:31 AM 35.6 °F 27.5 °F 33.8 °F 93% 29.75 in 2.0 mi SSE 11.5 mph - N/A   Overcast
9:11 AM 37.4 °F 32.1 °F 33.8 °F 87% 29.75 in 1.5 mi SSE 6.9 mph - N/A   Overcast
9:31 AM 37.4 °F 33.8 °F 35.6 °F 93% 29.75 in 1.2 mi SE 4.6 mph - N/A   Overcast
9:51 AM 39.2 °F 35.0 °F 35.6 °F 87% 29.74 in 0.8 mi SE 5.8 mph - N/A   Overcast
10:11 AM 39.2 °F 34.2 °F 37.4 °F 93% 29.75 in 0.5 mi SE 6.9 mph - N/A Fog Fog
10:31 AM 39.2 °F 35.0 °F 37.4 °F 93% 29.74 in 0.8 mi SSE 5.8 mph - N/A   Overcast
11:11 AM 42.8 °F 38.6 °F 39.2 °F 87% 29.72 in 2.0 mi South 6.9 mph - N/A   Overcast
11:31 AM 42.8 °F 38.0 °F 41.0 °F 93% 29.73 in 3.0 mi SSW 8.1 mph - N/A   Overcast
11:51 AM 44.6 °F 40.7 °F 41.0 °F 87% 29.72 in 3.0 mi SSW 6.9 mph - N/A   Overcast
12:11 PM 46.4 °F 41.9 °F 42.8 °F 87% 29.71 in 3.0 mi SSW 9.2 mph - N/A   Haze
12:31 PM 50.0 °F - 42.8 °F 76% 29.70 in 4.0 mi SW 8.1 mph - N/A   Haze
1:11 PM 50.0 °F - 39.2 °F 66% 29.69 in 7.0 mi WSW 10.4 mph - N/A   Clear
1:31 PM 50.0 °F - 37.4 °F 62% 29.70 in 7.0 mi WSW 10.4 mph - N/A   Clear
1:51 PM 50.0 °F - 37.4 °F 62% 29.69 in 10.0 mi West 10.4 mph - N/A   Clear
2:11 PM 51.8 °F - 35.6 °F 54% 29.69 in 10.0 mi West 9.2 mph - N/A   Clear
2:31 PM 51.8 °F - 37.4 °F 58% 29.69 in 10.0 mi West 8.1 mph - N/A   Clear
2:51 PM 51.8 °F - 35.6 °F 54% 29.69 in 10.0 mi WNW 9.2 mph - N/A   Clear
3:11 PM 50.0 °F - 35.6 °F 58% 29.70 in 10.0 mi WNW 8.1 mph - N/A   Clear
3:31 PM 50.0 °F - 35.6 °F 58% 29.71 in 10.0 mi West 8.1 mph - N/A   Clear
3:51 PM 50.0 °F - 35.6 °F 58% 29.73 in 10.0 mi WNW 5.8 mph - N/A   Clear
4:11 PM 50.0 °F - 35.6 °F 58% 29.74 in 10.0 mi WNW 5.8 mph - N/A   Clear
4:31 PM 44.6 °F 42.2 °F 33.8 °F 66% 29.74 in 10.0 mi WNW 4.6 mph - N/A   Clear
4:51 PM 42.8 °F 38.6 °F 32.0 °F 66% 29.74 in 10.0 mi NW 6.9 mph - N/A   Clear
5:11 PM 41.0 °F - 32.0 °F 70% 29.75 in 10.0 mi Calm Calm - N/A   Clear
5:31 PM 39.2 °F - 32.0 °F 75% 29.76 in 10.0 mi Calm Calm - N/A   Clear
5:50 PM 39.2 °F - 32.0 °F 75% 29.77 in 10.0 mi Calm Calm - N/A   Clear
6:11 PM 37.4 °F 33.8 °F 32.0 °F 81% 29.77 in 10.0 mi NW 4.6 mph - N/A   Clear
6:31 PM 37.4 °F 33.8 °F 32.0 °F 81% 29.77 in 10.0 mi WNW 4.6 mph - N/A   Clear
6:51 PM 35.6 °F 32.8 °F 30.2 °F 81% 29.79 in 10.0 mi NW 3.5 mph - N/A   Clear
7:11 PM 35.6 °F 29.9 °F 32.0 °F 87% 29.79 in 10.0 mi NW 6.9 mph - N/A   Clear
7:31 PM 39.2 °F 35.0 °F 32.0 °F 75% 29.79 in 10.0 mi NW 5.8 mph - N/A   Clear
7:51 PM 39.2 °F 37.0 °F 32.0 °F 75% 29.80 in 10.0 mi WNW 3.5 mph - N/A   Clear
8:11 PM 39.2 °F - 32.0 °F 75% 29.79 in 10.0 mi Calm Calm - N/A   Clear
8:31 PM 37.4 °F - 32.0 °F 81% 29.79 in 10.0 mi Calm Calm - N/A   Clear
8:51 PM 35.6 °F 29.2 °F 32.0 °F 87% 29.81 in 10.0 mi West 8.1 mph - N/A   Clear
9:31 PM 37.4 °F 34.9 °F 32.0 °F 81% 29.82 in 10.0 mi WNW 3.5 mph - N/A   Mostly Cloudy
9:50 PM 37.4 °F 32.1 °F 32.0 °F 81% 29.83 in 10.0 mi NW 6.9 mph - N/A   Scattered Clouds
10:11 PM 33.8 °F 27.7 °F 30.2 °F 87% 29.84 in 10.0 mi NW 6.9 mph - N/A   Clear
10:31 PM 33.8 °F 29.6 °F 30.2 °F 87% 29.84 in 7.0 mi NW 4.6 mph - N/A   Clear
10:51 PM 32.0 °F 27.5 °F 28.4 °F 87% 29.84 in 7.0 mi NW 4.6 mph - N/A   Clear
11:11 PM 32.0 °F 26.4 °F 28.4 °F 87% 29.85 in 7.0 mi NW 5.8 mph - N/A   Clear
11:31 PM 30.2 °F - 28.4 °F 93% 29.86 in 7.0 mi Calm Calm - N/A   Clear
11:51 PM 30.2 °F 25.4 °F 26.6 °F 86% 29.87 in 7.0 mi NW 4.6 mph - N/A   Clear